Location: Eexterzandvoort
(53.0303°N, 6.7884°E)
Time: 00:47:40
(UTC+00:00)

Meteor 1-10 Rocket - Pass Details

Date: 19 May 2025
Orbit: 833 x 910 km, 81.3° (Epoch: 23 June)

Event Time Altitude Azimuth Distance (km) Brightness Sun altitude
Exits shadow 21:54:29 18° 177° (S) 2,056 5.6 -14.2°
Maximum altitude 21:58:54 68° 98° (E) 967 4.4 -14.4°
Drops below altitude 10° 22:04:42 10° 17° (NNE) 2,563 7.5 -14.7°
Sets 22:07:09 0° 15° (NNE) 3,496 8.4 -14.8°
